User: anonymous   Login
Location: Beddau
(51.5575°N, 3.3561°W)
Time: 15:54:05
(UTC+00:00)
Language:

Cosmos 1689 Rocket - Orbit

View from above orbital plane
View from above orbital plane
View from above satellite
View from above satellite

Ground track
Ground track

The orbit data is extracted from the following two-line orbital elements,

1 16111U 85090B   21132.07145920  .00012620  00000-0  97095-4 0  9994
2 16111  97.4787 332.5353 0010528 119.2209 241.0108 15.72095393966504
Epoch (UTC): 12 May 2021 01:42:54
Eccentricity: 0.0010528
inclination: 97.4787°
perigee height: 346 km
apogee height: 360 km
right ascension of ascending node: 332.5353°
argument of perigee: 119.2209°
revolutions per day: 15.72095393
mean anomaly at epoch: 241.0108°
orbit number at epoch: 96650

The dashed part of the orbit path shows where the satellite is in the earth's shadow,  

DLR